Location: Unspecified
(43.3116°N, 2.0147°W)
Time: 21:40:42
(UTC+02:00)

CZ-3 Stage 3 - Visible Passes

Search period start: 24 July 2024 00:00
Search period end: 03 August 2024 00:00
Orbit: 509 x 34608 km, 30.5° (Epoch: 23 July)

Date Brightness Start Highest point End Pass type
(mag) Time Alt. Az. Time Alt. Az. Time Alt. Az.
26 Jul 7.2 02:44:25 10° W 03:32:00 70° S 11:33:38 10° SSW visible
26 Jul 6.2 23:04:25 10° SSW 23:18:02 48° SE 07:56:32 10° SSE visible
28 Jul 8.1 06:14:20 10° W 07:38:49 41° WSW 12:01:42 10° W visible
29 Jul 7.2 02:23:38 10° WSW 03:06:20 70° S 11:13:40 10° SSW visible
29 Jul 6.2 22:43:59 10° SSW 22:56:48 46° SE 07:32:43 10° SSE visible
31 Jul 8.1 05:52:31 10° W 07:16:10 43° WSW 11:49:26 10° WSW visible
01 Aug 7.1 02:02:51 10° WSW 02:41:17 70° S 10:53:28 10° SSW visible
01 Aug 6.1 22:23:33 10° SSW 22:35:38 44° SE 07:08:27 10° SE visible
